Flight Track Log - Related Links

Times and Time Zones

All times are in EDT time to prevent confusion due to time zone crossing. See the SWA378 flight status page for this flight to view local times or setup timezone preferences in your user account.

Time Position Orientation Groundspeed Altitude Reporting Facility
EDT Latitude Longitude Course Direction KTS MPH feet Rate Location/Type
Wed 06:48:44 PM 33.6306 -84.4828 226° Southwest 445 512 3,000  Level Atlanta Center
Wed 06:49:00 PM 33.6167 -84.5000 226° Southwest 212 244 4,200 3,632 Climbing Atlanta TRACON
Wed 06:50:00 PM 33.5833 -84.5833 244° Southwest 269 310 7,600 2,195 Climbing Atlanta TRACON
Wed 06:51:44 PM 33.4592 -84.5369 163° South 299 344 10,200 2,268 Climbing Atlanta Center
Wed 06:52:44 PM 33.4533 -84.4147 93° East 288 331 13,800 3,300 Climbing Atlanta Center
Wed 06:53:44 PM 33.4581 -84.2853 87° East 356 410 16,800 2,900 Climbing Atlanta Center
Wed 06:54:44 PM 33.5042 -84.1633 66° East 370 426 19,600 2,700 Climbing Atlanta Center
Wed 06:55:44 PM 33.5708 -84.0464 56° Northeast 386 444 22,200 2,400 Climbing Atlanta Center
Wed 06:56:44 PM 33.6397 -83.9264 55° Northeast 418 481 24,400 2,300 Climbing Atlanta Center
Wed 06:57:44 PM 33.6897 -83.7892 66° East 441 507 26,800 2,100 Climbing Atlanta Center
Wed 06:58:44 PM 33.7394 -83.6492 67° East 446 513 28,600 1,750 Climbing Atlanta Center
Wed 06:59:44 PM 33.7889 -83.5039 68° East 462 532 30,300 1,200 Climbing Atlanta Center
Wed 07:00:44 PM 33.8403 -83.3586 67° East 467 537 31,000 350 Climbing Atlanta Center
Wed 07:01:44 PM 33.8936 -83.2106 67° East 467 537 31,000  Level Atlanta Center
Wed 07:02:44 PM 33.9428 -83.0672 68° East 468 539 31,000  Level Atlanta Center
Wed 07:03:44 PM 33.9936 -82.9214 67° East 468 539 31,000 700 Level Atlanta Center
Wed 07:04:44 PM 34.0383 -82.7906 68° East 468 539 32,400 1,000 Climbing Atlanta Center
Wed 07:05:44 PM 34.0889 -82.6417 68° East 473 544 33,000 300 Climbing Atlanta Center
Wed 07:06:44 PM 34.1414 -82.4853 68° East 468 539 33,000  Level Atlanta Center
Wed 07:07:44 PM 34.1917 -82.3386 67° East 463 533 33,000 400 Level Atlanta Center
Wed 07:08:44 PM 34.2394 -82.1894 69° East 463 533 33,800 1,250 Climbing Atlanta Center
Wed 07:09:44 PM 34.3042 -82.0522 60° Northeast 463 533 35,500 1,650 Climbing Atlanta Center
Wed 07:10:44 PM 34.3708 -81.9172 59° Northeast 463 533 37,100 1,400 Climbing Atlanta Center
Wed 07:11:44 PM 34.4353 -81.7847 59° Northeast 457 526 38,300 950 Climbing Atlanta Center
Wed 07:12:44 PM 34.4889 -81.6447 65° Northeast 457 526 39,000 350 Climbing Atlanta Center
Wed 07:13:44 PM 34.5464 -81.5017 64° Northeast 457 526 39,000  Level Atlanta Center
Wed 07:14:44 PM 34.6019 -81.3639 64° Northeast 457 526 39,000  Level Atlanta Center
Wed 07:15:44 PM 34.6553 -81.2258 65° Northeast 448 516 39,000  Level Atlanta Center
Wed 07:16:44 PM 34.7103 -81.0850 65° Northeast 455 524 39,000  Level Atlanta Center
Wed 07:17:44 PM 34.7575 -80.9644 64° Northeast 450 518 39,000 -281 Level Atlanta Center
Wed 07:19:56 PM 34.8783 -80.6553 64° Northeast 508 585 38,100 -603 Descending Washington Center
Wed 07:20:53 PM 34.9319 -80.5194 64° Northeast 459 528 37,100 -559 Descending Washington Center
Wed 07:21:54 PM 34.9836 -80.3756 66° East 454 522 37,000 -49 Descending Washington Center
Wed 07:22:55 PM 35.0417 -80.2319 64° Northeast 454 522 37,000  Level Washington Center
Wed 07:23:54 PM 35.0931 -80.0850 67° East 461 531 37,000  Level Washington Center
Wed 07:24:55 PM 35.1569 -79.9336 63° Northeast 461 531 37,000  Level Washington Center
Wed 07:25:56 PM 35.2122 -79.7892 65° Northeast 456 525 37,000 -450 Level Washington Center
Wed 07:26:55 PM 35.2653 -79.6469 65° Northeast 456 525 36,100 -958 Descending Washington Center
Wed 07:27:55 PM 35.3178 -79.5094 65° Northeast 456 525 35,100 -992 Descending Washington Center
Wed 07:28:56 PM 35.3747 -79.3647 64° Northeast 463 533 34,100 -958 Descending Washington Center
Wed 07:29:54 PM 35.4292 -79.2169 66° East 470 541 33,200 -966 Descending Washington Center
Wed 07:30:54 PM 35.4817 -79.0739 66° East 470 541 32,200 -1,000 Descending Washington Center
Wed 07:31:54 PM 35.5381 -78.9231 65° Northeast 470 541 31,200 -893 Descending Washington Center
Wed 07:32:55 PM 35.5875 -78.7922 65° Northeast 475 547 30,400 -885 Descending Washington Center
Wed 07:33:56 PM 35.6436 -78.6439 65° Northeast 475 547 29,400 -1,041 Descending Washington Center
Wed 07:34:56 PM 35.6972 -78.4950 66° East 475 547 28,300 -1,077 Descending Washington Center
Wed 07:35:53 PM 35.7547 -78.3589 62° Northeast 464 534 27,300 -1,017 Descending Washington Center
Wed 07:36:54 PM 35.8183 -78.2253 60° Northeast 452 520 26,300 -1,033 Descending Washington Center
Wed 07:37:55 PM 35.8794 -78.0942 60° Northeast 439 505 25,200 -1,033 Descending Washington Center
Wed 07:38:56 PM 35.9158 -77.9567 72° East 426 490 24,200 -1,091 Descending Washington Center
Wed 07:39:56 PM 35.9372 -77.8111 80° East 420 483 23,000 -1,385 Descending Washington Center
Wed 07:40:53 PM 35.9586 -77.6706 79° East 420 483 21,500 -1,017 Descending Washington Center
Wed 07:41:54 PM 35.9797 -77.5375 79° East 409 471 21,000 -585 Descending Washington Center
Wed 07:42:56 PM 36.0025 -77.3994 78° East 409 471 20,300 -857 Descending Washington Center
Wed 07:43:53 PM 36.0544 -77.2825 61° Northeast 397 457 19,300 -1,091 Descending Washington Center
Wed 07:44:24 PM 36.0947 -77.2319 45° Northeast 401 461 18,700 -984 Descending Washington Center
Wed 07:44:54 PM 36.1331 -77.1839 45° Northeast 390 449 18,300 -1,000 Descending Washington Center
Wed 07:45:30 PM 36.1839 -77.1206 45° Northeast 400 460 17,600 -1,180 Descending Washington Center
Wed 07:45:55 PM 36.2117 -77.0747 53° Northeast 384 442 17,100 -982 Descending Washington Center
Wed 07:46:25 PM 36.2497 -77.0344 40° Northeast 396 456 16,700 -984 Descending Washington Center
Wed 07:46:56 PM 36.2900 -76.9783 48° Northeast 384 442 16,100 -986 Descending Washington Center
Wed 07:47:38 PM 36.3428 -76.9147 44° Northeast 388 447 15,500 -1,034 Descending Washington Center
Wed 07:47:54 PM 36.3639 -76.8842 49° Northeast 384 442 15,100 -1,558 Descending Washington Center
Wed 07:48:55 PM 36.4381 -76.7872 46° Northeast 384 442 13,500 -1,596 Descending Washington Center
Wed 07:49:43 PM 36.4847 -76.7028 55° Northeast 366 421 12,200 -1,282 Descending Washington Center
Wed 07:50:38 PM 36.5294 -76.6078 60° Northeast 365 420 11,300 -986 Descending Washington Center
Wed 07:50:56 PM 36.5483 -76.5719 57° Northeast 371 427 11,000 -800 Descending Washington Center
Wed 07:51:38 PM 36.5803 -76.5050 59° Northeast 324 373 10,500 -931 Descending Washington Center
Wed 07:51:54 PM 36.5972 -76.4767 53° Northeast 347 399 10,100 -1,377 Descending Washington Center
Wed 07:52:39 PM 36.6311 -76.4072 59° Northeast 312 359 9,100 -1,400 Descending Washington Center
Wed 07:52:54 PM 36.6436 -76.3892 49° Northeast 321 369 8,700 -1,810 Descending Washington Center
Wed 07:53:42 PM 36.6900 -76.3275 47° Northeast 315 362 7,200 -2,106 Descending Washington Center
Wed 07:54:28 PM 36.7444 -76.2736 38° Northeast 310 357 5,400 -1,805 Descending Washington Center
Wed 07:55:35 PM 36.8181 -76.2017 38° Northeast 300 345 3,800 -896 Descending Washington Center
Wed 07:56:42 PM 36.8786 -76.1397 39° Northeast 244 281 3,400 -520 Descending Washington Center
Wed 07:57:42 PM 36.9311 -76.0958 34° Northeast 170 196 2,700 -700 Descending Washington Center

Login

Don't have an account? Register now (free) for customized features, flight alerts, and more!